AirNav   Jet Aviation Boston
 
 899 users online  

N40 Sky Manor Airport
Pittstown, New Jersey, USA

GOING TO PITTSTOWN?


FAA INFORMATION EFFECTIVE 21 JUNE 2018

Location

FAA Identifier: N40
Lat/Long: 40-33-57.1760N / 074-58-45.5090W
40-33.952933N / 074-58.758483W
40.5658822 / -74.9793081
(estimated)
Elevation: 560 ft. / 171 m (estimated)
Variation: 13W (2010)
From city: 2 miles SW of PITTSTOWN, NJ
Time zone: UTC -4 (UTC -5 during Standard Time)
Zip code: 08867

Airport Operations

Airport use: Open to the public
Activation date: 03/1947
Control tower: no
ARTCC: NEW YORK CENTER
FSS: MILLVILLE FLIGHT SERVICE STATION
NOTAMs facility: MIV (NOTAM-D service available)
Attendance: CONTINUOUS
Pattern altitude: 1560 ft. MSL
Wind indicator: yes
Segmented circle: no
Lights: ACTVT MIRL RY 07/25; REIL RYS 07 & 25; PAPI RYS 07 & 25 & TWY LGTS - CTAF.

Airport Communications

CTAF/UNICOM: 122.975
ALLENTOWN APPROACH: 119.65(3000 & BLO) 124.45(ABV 3000)
ALLENTOWN DEPARTURE: 119.65(3000 & BLO) 124.45(ABV 3000)
IC: 119.65(3000 & BLO) 124.45(ABV 3000)
WX ASOS at SMQ (15 nm E): 120.6 (908-722-2139)
WX ASOS at DYL (15 nm SW): 118.875 (215-345-0392)
WX AWOS-3 at CKZ (18 nm SW): 126.325 (215-257-7291)
WX ASOS at TTN (19 nm SE): 126.775 (609-538-8690)
WX AWOS-3 at UKT (20 nm SW): 119.475 (215-538-7610)

Nearby radio navigation aids

VOR radial/distance  VOR name  Freq  Var
SBJr275/10.9SOLBERG VOR/DME112.9010W
BWZr218/15.7BROADWAY VOR/DME114.2011W
ARDr000/19.0YARDLEY VOR/DME108.2010W
FJCr124/23.7ALLENTOWN VORTAC117.5010W
STWr202/26.3STILLWATER VOR/DME109.6011W
PNEr013/(29.1)NORTH PHILADELPHIA VOR112.0010W
RBVr325/31.1ROBBINSVILLE VORTAC113.8010W
ETXr101/32.1EAST TEXAS VOR/DME110.2009W
PTWr061/33.6POTTSTOWN VORTAC116.5009W
SAXr225/36.2SPARTA VORTAC115.7011W
GXUr344/37.7MC GUIRE VORTAC110.6012W

 
NDB name  Hdg/Dist  Freq  Var  ID
CHATHAM260/27.125413WCAT -.-. .- -
AMBLER040/29.927512WING .. -. --.

Airport Services

Fuel available: 100LL
Parking: hangars and tiedowns
Airframe service: MAJOR
Powerplant service: MAJOR
Bottled oxygen: NONE
Bulk oxygen: NONE

Runway Information

Runway 7/25

Dimensions: 2900 x 50 ft. / 884 x 15 m
Surface: asphalt, in good condition
Runway edge lights: medium intensity
RUNWAY 7  RUNWAY 25
Latitude: 40-33.813333N40-34.092533N
Longitude: 074-59.012667W074-58.504300W
Elevation: 548.0 ft.558.0 ft.
Gradient: 0.3% UP0.3% DOWN
Traffic pattern: leftleft
Runway heading: 067 magnetic, 054 true247 magnetic, 234 true
Markings: nonprecision, in good conditionnonprecision, in good condition
Visual slope indicator: 2-light PAPI on left (4.00 degrees glide path)
VGSI AND DESCENT ANGLES NOT COINCIDENT. PAPI UNUSBL BYD 4.0 DEGS RIGHT OF CNTRLN.
2-light PAPI on left (4.00 degrees glide path)
Runway end identifier lights: yesyes
Touchdown point: yes, no lightsyes, no lights
Obstructions: 93 ft. trees, 1020 ft. from runway, 360 ft. right of centerline, 9:1 slope to clear99 ft. pline, lighted, 2070 ft. from runway, 210 ft. left of centerline, 18:1 slope to clear
13 FT T-HANGARS 80 FT FM THLD 215 FT R.

Airport Ownership and Management from official FAA records

Ownership: Privately-owned
Owner: SKY MANOR AIRPORT PARTNERS LLC
PO BOX 56
PITTSTOWN, NJ 08867
Phone 908-996-4200
Manager: SKY MANOR AIRPORT PARTNERS LCC
PO BOX 56
PITTSTOWN, NJ 08867
Phone 908-996-4200

Airport Operational Statistics

Aircraft based on the field: 107
Single engine airplanes: 99
Multi engine airplanes: 3
Helicopters: 3
Ultralights: 2
    
Aircraft operations: avg 61/day *
74% local general aviation
26% transient general aviation
<1% air taxi
* for 12-month period ending 31 March 2018

Additional Remarks

HELICOPTER ACTIVITY ON & INVOF ARPT.
SELF-SERVE FUEL SYSTEM ON NORTH END OF TIE-DOWN RAMP.
GCO AVAILABLE ON 121.725. IF UNA FOR CD CTC ABE APCH AT 800-728-6322.
AVOID OVERFLIGHT OF HORSE FARM (STABLES) 500 FT N OF ACFT HNGRS.
RWY 07 NOISE ABATEMENT PROCEDURES VFR DEP FLY RWY HDG UNTIL REACHING AT LEAST 1300FT MSL.
RWY 25 NOISE ABATEMENT PROCEDURES VFR DEP SAFETY PERMITTING AT DEP END OF RWY TURN RIGHT FLY HDG 270 UNTIL REACHING AT LEAST 1300FT MSL.

Instrument Procedures

NOTE: All procedures below are presented as PDF files. If you need a reader for these files, you should download the free Adobe Reader.

NOT FOR NAVIGATION. Please procure official charts for flight.
FAA instrument procedures published for use from 21 June 2018 at 0901Z to 19 July 2018 at 0900Z.

 
IAPs - Instrument Approach Procedures
RNAV (GPS) RWY 07   download (156KB)
RNAV (GPS) RWY 25   download (157KB)
VOR RWY 07   download (174KB)
NOTE: Special Take-Off Minimums/Departure Procedures apply   download (150KB)

Other nearby airports with instrument procedures:

N85 - Alexandria Airport (2 nm NW)
N51 - Solberg-Hunterdon Airport (11 nm E)
KSMQ - Somerset Airport (15 nm E)
KDYL - Doylestown Airport (15 nm SW)
N43 - Braden Airpark (16 nm NW)
47N - Central Jersey Regional Airport (18 nm E)
39N - Princeton Airport (18 nm SE)
KCKZ - Pennridge Airport (18 nm SW)
KTTN - Trenton Mercer Airport (19 nm SE)
KUKT - Quakertown Airport (20 nm SW)
 
Loc | Ops | Rwys | IFR | FBO | Links
Com | Nav | Svcs | Stats | Notes

AirNav Hotels Sweepstakes
 
Area around N40 (Sky Manor Airport)
 
Road maps at: MapQuest Bing Google
 
Aerial photo
WARNING: Photo may not be current or correct
Aerial photo of N40 (Sky Manor Airport)
Photo taken 30-Jul-2017
looking southwest.

Do you have a better or more recent aerial photo of Sky Manor Airport that you would like to share? If so, please send us your photo.

 
Sectional chart

 
Airport distance calculator
Flying to Sky Manor Airport? Find the distance to fly.

From to N40

Sunrise and sunset
Times for 21-Jun-2018
 Local
(UTC-4)
 Zulu
(UTC)
Morning civil twilight04:5708:57
Sunrise05:3009:30
Sunset20:3300:33
Evening civil twilight21:0601:06

Current date and time
Zulu (UTC)  22-Jun-2018 02:39:06
Local (UTC-4)  21-Jun-2018 22:39:06
 
METAR
KSMQ 
15nm E 
ASOS 120.60 908-722-2139
220153Z AUTO 33003KT 10SM CLR 21/19 A2981 RMK AO2 SLP095 T02060194
KDYL 
15nm SW 
220154Z AUTO 00000KT 10SM CLR 22/17 A2983 RMK AO2 SLP097 T02170167
KCKZ 
18nm SW 
220215Z AUTO 00000KT 10SM CLR 19/19 A2986 RMK AO2
KTTN 
19nm SE 
ASOS 133.70 609-538-8690
220153Z 00000KT 10SM CLR 23/16 A2982 RMK AO2 SLP092 T02280161
KUKT 
20nm SW 
220215Z AUTO 10SM CLR 21/18 A2985 RMK A01
KABE 
22nm W 
220151Z 35004KT 10SM SCT070 23/16 A2984 RMK AO2 SLP102 T02330156
KXLL 
23nm W 
220215Z AUTO 00000KT 10SM CLR A2986 RMK AO2
KMMU 
29nm NE 
220215Z AUTO 00000KT 10SM SCT070 OVC085 21/18 A2985 RMK AO2
KLOM 
29nm SW 
220215Z AUTO 00000KT 10SM CLR 19/17 A2985 RMK AO1
KPNE 
29nm S 
220154Z AUTO 00000KT 10SM CLR 24/16 A2984 RMK AO2 SLP102 T02440156
TAF
KTTN 
19nm SE 
211720Z 2118/2218 05005KT P6SM SCT040 FM220000 VRB03KT P6SM SCT200 FM221000 09008KT P6SM BKN100 FM221700 08005KT P6SM BKN040
KABE 
22nm W 
211838Z 2119/2218 35010KT P6SM SCT200 FM212300 04004KT P6SM SCT200 FM221200 07005KT P6SM BKN120 FM221700 08005KT P6SM BKN040
NOTAMs
Click for the latest NOTAMs
NOTAMs are issued by the DoD/FAA and will open in a separate window not controlled by AirNav.

 

 
 

FBO, Fuel Providers, and Aircraft Ground Support

  
 Business Name 
 
 Contact 
 
 Services / Description 
 
Fuel Prices
 
Comments
  
 Sky Manor Airport
908-996-4200
[web site]
[email]
Airport management, Aviation fuel, Aircraft parking (ramp or tiedown), Hangars, Restrooms

More info about Sky Manor Airport
Shell
100LL
SS $4.95 
 Updated 20-Jun-2018
 
   3 read write
SS=Self service
Update Fuel Prices
 

Aviation Businesses, Services, and Facilities

  
 Business Name 
 
 Contact 
 
 Services / Description 
 
Distance
 
Comments
  
 Sky Manor Air Repair and Avionics
908-996-0541
[web site]
[email]
Maintentance and Avionics from the an experienced TEAM of professionals. We have 2 IA's and 3 A&Ps on staff to exceed your expectations. See us for Annuals, Repairs, 2yr Checks, and Installs. Representing GARMIN, Avidyne, Aspen, L3/Lynx, Stratus, PS-Eng Audio Controls, S-Tec, and more.

More info about Sky Manor Air Repair and Avionics
on airport  
   3 read write
Sky Beckons Aviation 908-996-7230
609-865-6470
[web site]
[email]
Flight training, Aircraft rental, Aerial tours / aerial sightseeing, Aerial photography, Pilot supplies, Internet access, Restrooms

More info about Sky Beckons Aviation
on airport  
   write
 

Would you like to see your business listed on this page?

 If your business provides an interesting product or service to pilots, flight crews, aircraft, or users of the Sky Manor Airport, you should consider listing it here.  To start the listing process, click on the button below
 
Add a business
 

Other Pages about Sky Manor Airport

www.skymanorairport.com
 
Update a link
 
Copyright © AirNav, LLC. All rights reserved. Privacy Policy  Contact